Location: Agendoh
(31.0664°N, 8.9343°W)
Time: 09:05:45
(UTC+00:00)

Cosmos 2279 Rocket - Pass Details

Date: 06 December 2021
Orbit: 964 x 978 km, 82.9° (Epoch: 24 January)

Event Time Altitude Azimuth Distance (km) Brightness Sun altitude
Rises 06:23:01 0° 345° (NNW) 3,654 6.7 -12.2°
Reaches altitude 10° 06:25:38 10° 339° (NNW) 2,705 6.0 -11.6°
Maximum altitude 06:31:25 43° 270° (W) 1,321 4.3 -10.5°
Drops below altitude 10° 06:37:12 10° 200° (SSW) 2,697 6.3 -9.3°
Sets 06:39:49 0° 194° (SSW) 3,642 7.1 -8.8°
